#timestamp,LO_Frequency,Hit,StdDev 
1505656815.3,286047004.2,N
1505656835.1,286047005.1,N
1505656855.8,286047004.9,N
1505656875.7,286047007.4,Y
1505656895.5,286047004.2,P
1505656915.3,286047001.5,N
1505656935.2,286047001.8,N
1505656955.9,286047001.1,N
1505656975.7,286047001.6,N
1505656995.6,286047002.8,N
1505657015.4,286046998.7,N
1505657035.2,286046994.9,Y
1505657055.1,286046996.3,P
1505657056.0,286046996.3,N
1505657075.8,286046996.3,N
1505657095.6,286046994.7,N
1505657115.5,286046997.6,N
1505657135.3,286047000.6,N
1505657155.1,286046999.9,N
1505657175.9,286046998.8,N
1505657195.7,286047002.6,N
1505657215.5,286047000.7,N
1505657235.4,286046998.1,N
1505657255.2,286047000.8,N
1505657275.0,286046999.8,N
1505657275.9,286046999.8,N
1505657295.7,286047003.9,N
1505657315.6,286047001.9,N
1505657335.4,286046998.6,N
1505657355.2,286046998.1,N
1505657375.1,286047000.7,N
1505657376.0,286047000.7,N
1505657395.8,286046999.6,N
1505657415.6,286047002.2,N
1505657435.5,286047002.6,N
1505657455.3,286047000.6,N
1505657475.1,286047000.5,N
1505657495.9,286047000.9,N
1505657515.7,286047002.1,N
1505657535.5,286047001.5,N
1505657555.4,286047002.5,N
1505657575.2,286046998.1,N
1505657595.0,286047000.9,N
1505657595.9,286047000.9,N
1505657615.8,286047002.0,N
1505657635.6,286047002.3,N
1505657655.4,286047000.6,N
1505657675.2,286046998.1,N
1505657695.1,286047001.5,N
1505657696.0,286047001.5,N
1505657715.8,286047004.0,N
1505657735.6,286046998.5,N
1505657755.5,286046999.5,N
1505657775.3,286047001.0,N
1505657795.1,286047000.6,N
1505657815.9,286047001.9,N
1505657835.7,286047005.6,Y
1505657855.5,286047000.0,P
1505657875.4,286047000.8,N
1505657895.2,286047000.4,N
1505657915.0,286047002.5,Y
1505657916.0,286047002.5,P
1505657935.8,286047001.7,N
1505657955.6,286047004.0,P
1505657975.4,286047001.8,N
1505657995.3,286047003.2,N
1505658015.1,286047004.3,Y
1505658035.8,286047002.5,P
1505658055.7,286047002.7,P
1505658075.5,286047002.2,P
1505658095.4,286047006.9,Y
1505658115.2,286047003.8,P
1505658135.0,286047002.0,N
1505658135.9,286047002.0,N
1505658155.7,286047001.6,N
1505658175.6,286046998.4,N
1505658195.4,286047000.8,N
1505658215.2,286046998.6,N
1505658235.1,286047000.7,N
1505658236.0,286047000.7,N
1505658255.8,286046999.1,N
1505658275.6,286046998.7,N
1505658295.5,286046999.3,N
1505658315.3,286046998.5,N
1505658335.1,286047000.2,N
1505658355.9,286047001.2,N
1505658375.7,286046996.8,N
1505658395.5,286046998.9,N
1505658415.4,286046999.6,N
1505658435.2,286046995.0,N
1505658455.0,286046997.2,N
1505658455.9,286046997.2,N
1505658475.7,286046995.3,N
1505658495.6,286046997.8,N
1505658515.4,286046995.2,N
1505658535.2,286046998.8,N
1505658555.1,286046997.8,N
1505658556.0,286046997.8,N
1505658575.8,286047001.2,N
1505658595.6,286046996.7,N
1505658615.5,286047000.5,N
1505658635.3,286047000.8,N
1505658655.1,286047002.6,N
1505658675.9,286046998.6,N
1505658695.7,286046998.6,N
1505658715.5,286046997.0,N
1505658735.4,286046998.9,N
1505658755.2,286046999.0,N
1505658775.0,286046997.7,N
1505658775.9,286046997.7,N
1505658795.8,286047000.2,N
1505658815.6,286046998.4,N
1505658835.4,286046999.0,N
1505658855.3,286046999.2,N
1505658875.1,286046996.5,N
1505658895.8,286046997.3,N
1505658915.7,286046995.0,N
1505658935.5,286046999.6,N
1505658955.3,286046999.5,N
1505658975.2,286046998.0,N
1505658995.9,286046996.1,N
1505659015.7,286046995.8,N
1505659035.6,286046991.7,Y
1505659055.4,286046996.9,P
1505659075.2,286046997.2,P
1505659095.1,286046998.9,N
1505659096.0,286046998.9,N
1505659115.8,286047000.1,N
1505659135.6,286047000.3,N
1505659155.5,286046998.7,N
1505659175.3,286046997.5,N
1505659195.1,286046999.7,N
1505659215.8,286047000.3,N
1505659235.7,286047000.1,N
1505659255.5,286046999.1,N
1505659275.3,286046998.1,N
1505659295.2,286046996.7,N
1505659315.9,286046994.9,Y
1505659335.7,286046998.8,P
1505659355.6,286046999.1,P
1505659375.4,286046993.3,P
1505659395.2,286046995.5,N
1505659415.1,286046995.0,N
1505659416.0,286046995.0,N
1505659435.8,286046997.1,N
1505659455.6,286046997.7,N
1505659475.5,286046999.5,N
1505659495.3,286047000.6,N
1505659515.1,286046998.5,N
1505659535.9,286047000.0,N
1505659555.7,286047001.2,N
1505659575.5,286046998.8,N
1505659595.3,286047000.8,N
1505659615.2,286047002.4,N
1505659635.0,286046998.5,N
1505659635.9,286046998.5,N
1505659655.7,286046997.1,N
1505659675.6,286046998.7,N
1505659695.4,286046998.7,N
1505659715.2,286046999.4,N
1505659735.1,286046999.5,N
1505659736.0,286046999.5,N
1505659755.8,286046998.7,N
1505659775.6,286046995.8,N
1505659795.5,286046996.6,N
1505659815.3,286046995.2,N
1505659835.1,286046993.4,Y
1505659855.9,286046995.8,P
1505659875.7,286046999.5,N
1505659895.5,286046995.2,P
1505659915.4,286046997.1,N
1505659935.2,286046997.1,N
1505659955.0,286046993.3,Y
1505659955.9,286046993.3,P
1505659975.8,286046998.3,N
1505659995.6,286047001.3,N
1505660015.4,286047005.2,N
1505660035.3,286047003.2,N
1505660055.1,286047003.3,N
1505660056.0,286047003.3,N
1505660075.8,286047004.0,N
1505660095.6,286047003.7,N
1505660115.5,286047001.3,N
1505660135.3,286047000.2,N
1505660155.1,286047006.8,N
1505660175.9,286047003.6,N
1505660195.7,286047002.5,N
1505660215.5,286047004.1,N
1505660235.4,286047004.9,N
1505660255.2,286047005.5,N
1505660275.0,286047006.3,N
1505660275.9,286047006.3,N
1505660295.8,286047010.3,Y
1505660315.6,286047007.5,P
1505660335.4,286047001.5,N
1505660355.3,286047002.6,N
1505660375.1,286047000.1,N
1505660376.0,286047000.1,N
1505660395.8,286047005.6,N
